• Join FlightAware (Why Join?)
  • Login
  • US Flag 
03:24PM EST


 

Airport Tracker/Info


-or-


 

Live Flight TrackerFlight Track Log ✈ DAL6234 ✈ 14-Apr-2013 ✈ KLGA - KSYR

Flight Track Log - Related Links

Times and Time Zones

All times are in EDT time to prevent confusion due to time zone crossing. See the DAL6234 flight status page for this flight to view local times or setup timezone preferences in your user account.

Time Position Orientation Groundspeed Altitude Reporting Facility
EDT Latitude Longitude Course Direction KTS MPH feet Rate Location/Type
03:45PM 40.8000 -73.8500 27° Northeast 152 175 1,400  Level New York TRACON
03:46PM 40.8500 -73.8167 27° Northeast 205 236 3,400 2,630 Climbing New York TRACON
03:49PM 40.9586 -73.9447 318° Northwest 213 245 11,000 2,548 Climbing New York Center
03:50PM 40.9939 -74.0289 299° West 248 285 12,700 1,785 Climbing New York Center
03:51PM 41.0350 -74.1217 300° West 281 323 14,600 2,067 Climbing New York Center
03:52PM 41.0758 -74.2225 298° West 304 350 16,800 1,714 Climbing New York Center
03:53PM 41.1253 -74.3050 309° West 311 358 18,000 595 Climbing New York Center
03:54PM 41.1889 -74.4103 309° West 322 371 18,000  Level New York Center
03:55PM 41.2383 -74.4958 308° West 329 379 18,000 756 Level New York Center
03:56PM 41.2972 -74.6011 307° West 324 373 19,500 1,664 Climbing New York Center
03:57PM 41.3486 -74.6897 308° West 330 380 21,300 1,230 Climbing New York Center
03:58PM 41.4056 -74.7900 307° West 330 380 22,000 350 Climbing New York Center
03:59PM 41.4664 -74.8989 307° West 343 395 22,000  Level New York Center
04:00PM 41.5253 -75.0022 307° West 355 409 22,000  Level New York Center
04:01PM 41.5858 -75.1114 307° West 355 409 22,000  Level New York Center
04:02PM 41.6486 -75.2181 308° West 360 414 22,000  Level New York Center
04:03PM 41.7089 -75.3250 307° West 360 414 22,000  Level New York Center
04:04PM 41.7694 -75.4319 307° West 360 414 22,000  Level New York Center
04:05PM 41.8294 -75.5419 306° West 365 420 22,000  Level New York Center
04:06PM 41.8919 -75.6494 308° West 365 420 22,000 -50 Level New York Center
04:07PM 41.9517 -75.7600 306° West 370 426 21,900 -1,230 Descending New York Center
04:08PM 42.0117 -75.8706 306° West 370 426 19,500 -2,237 Descending New York Center
04:09PM 42.0675 -75.9753 306° West 370 426 17,500 -1,795 Descending New York Center
04:10PM 42.1194 -76.0689 307° West 345 397 16,000 -1,438 Descending New York Center
04:11PM 42.1892 -76.1389 323° Northwest 327 376 14,600 -1,190 Descending New York Center
04:12PM 42.2875 -76.1272 North 308 354 13,600 -1,105 Descending New York Center
04:12PM 42.3219 -76.1217 North 330 380 13,200 -1,043 Descending Boston Center
04:12PM 42.3575 -76.1183 North 292 336 12,800 -989 Descending Boston Center
04:13PM 42.4350 -76.1089 North 244 281 11,700 -871 Descending Boston Center
04:15PM 42.4978 -76.1011 North 220 253 11,000 -415 Descending Boston Center
04:16PM 42.5625 -76.0939 North 220 253 10,800 -520 Descending Boston Center
04:17PM 42.6253 -76.0889 North 225 259 9,900 -942 Descending Boston Center
04:18PM 42.6836 -76.0897 359° North 210 242 8,900 -1,008 Descending Boston Center
04:19PM 42.7461 -76.0906 359° North 215 247 7,900 -1,033 Descending Boston Center
04:20PM 42.8089 -76.0828 North 221 254 6,800 -1,016 Descending Boston Center
04:21PM 42.8719 -76.0725 North 224 258 5,800 -942 Descending Boston Center
04:22PM 42.9325 -76.0647 North 223 257 4,900 -942 Descending Boston Center
04:23PM 42.9894 -76.0453 14° North 217 250 3,900 -1,041 Descending Boston Center
04:24PM 43.0461 -76.0317 10° North 206 237 2,800 -1,131 Descending Boston Center
04:25PM 43.0961 -76.0344 358° North 148 170 1,600 -992 Descending Boston Center
04:26PM 43.1094 -76.0750 294° West 114 131 800 -800 Descending Boston Center
04:28PM 43.1112 -76.1063 124° Southeast  Level Estimated
04:35PM 43.1112 -76.1063 124° Southeast  Level Estimated
04:36PM 43.1112 -76.1063 124° Southeast  Level Estimated
04:37PM 43.1112 -76.1063 124° Southeast  Level Estimated
04:38PM 43.1112 -76.1063 124° Southeast  Level Estimated